Погода в Великой Александровке

Украина / Херсонская область     47°19′29″N   33°18′42″E
темп.,
°C
ветер,
м/с
пор.,
м/с
влажн.,
%
обл.,
%
осадки,
мм/ч
давл.,
гПа
погр.,
м
30 июня, чт
чт3000:00+25вюв335254 0.0 101546
03:00+22в3564100 0.0 101578
06:00+21всв35701 0.0 1014109
09:00+27всв334688 0.1 1014528
12:00+28ссз1141100 0.0 1014760
15:00+25з235668 0.1 1014177
18:00+26в68558 0.6 1013620
21:00+22вюв22727 1.1 101428
1 июля, пт
пт100:00+20всв46680 0.1 1015105
03:00+18всв35710 0.1 101572
06:00+18ссв34800 0.0 1016103
09:00+24св44550 0.0 1016845
12:00+28св55360 0.0 10162057
15:00+31ссв55290 0.0 10142533
18:00+29ссв66270 0.0 10152286
21:00+23ссв410430 0.0 1016184
2 июля, сб
сб200:00+20св411540 0.0 1018223
03:00+17всв46675 0.0 1019114
06:00+16св38697 0.0 1020204
09:00+22всв66420 0.0 10211083
12:00+25всв45230 0.0 10211729
15:00+27св34210 0.0 10212221
18:00+27ссв44210 0.0 10202073
21:00+21св46360 0.0 102080
3 июля, вс
вс300:00+18св34430 0.0 102144
03:00+16всв33520 0.0 102128
06:00+17св11611 0.0 102111
09:00+23ссв22385 0.0 1021685
12:00+27ссв33255 0.0 10201802
15:00+30с232193 0.0 10182321
18:00+30ссв23215 0.0 10172367
21:00+23ююв44380 0.0 101742
4 июля, пн
пн400:00+20ююз2350100 0.0 101824
03:00+19ююз225574 0.0 101712
06:00+21зюз2244100 0.0 101726
09:00+22сз1148100 0.0 101755
12:00+28всв1135100 0.1 1017564
15:00+31всв122712 0.3 10152560
18:00+31в2230100 0.0 10141401
21:00+26в2339100 0.2 101661